Regional Weather Roundup
Issued by NWS

Home | Current Version | Previous Version | Graphics & Text | Print | Product List | Glossary Off
Versions: 1 2 3 4 5 6 7 8 9 10 11 12 13 14 15 16 17 18 19 20 21 22 23 24 25 26 27 28 29 30 31 32 33 34 35 36 37 38 39 40 41 42 43 44 45 46 47 48 49 50

000
ASUS43 KLOT 210110
RWRIL

ILLINOIS REGIONAL WEATHER ROUNDUP
NATIONAL WEATHER SERVICE CHICAGO/ROMEOVILLE IL
700 PM CST SAT DEC 20 2014

NOTE: "FAIR" INDICATES FEW OR NO CLOUDS BELOW 12,000 FEET WITH NO
SIGNIFICANT WEATHER AND/OR OBSTRUCTIONS TO VISIBILITY.

* THESE STATIONS ARE NOT UNDER NWS QUALITY CONTROL. THEY ALSO MAY NOT
  REPORT WEATHER SUCH AS PRECIPITATION OR FOG.

ILZ001-002-007-009-015-016-024-210200-
NORTHWEST ILLINOIS

CITY           SKY/WX    TMP DP  RH WIND       PRES   REMARKS
MOLINE         CLOUDY    34  28  79 SE6       30.22R WCI  29
STERLING*      CLOUDY    32  27  80 CALM      30.24S
SAVANNA*       CLOUDY    33  27  81 SE7       30.23S WCI  26
$$

ILZ003-004-008-010-011-017-018-210200-
NORTH CENTRAL ILLINOIS

CITY           SKY/WX    TMP DP  RH WIND       PRES   REMARKS
ROCKFORD       CLOUDY    31  26  82 SE7       30.26S WCI  24
FREEPORT*      CLOUDY    30  26  84 SE5       30.25R WCI  25
ROCHELLE*      CLOUDY    31  28  90 SE6       30.25S WCI  25
DE KALB*       CLOUDY    29  26  89 SE6       30.24F WCI  23
PERU*          CLOUDY    33  29  86 SE6       30.26R WCI  28
$$

ILZ005-006-012>014-019>023-210200-
NORTHEAST ILLINOIS

CITY           SKY/WX    TMP DP  RH WIND       PRES   REMARKS
CHICAGO-OHARE  CLOUDY    31  25  78 S6        30.25S WCI  25
CHICAGO-MIDWAY CLOUDY    34  26  72 S5        30.27S WCI  30
AURORA         CLOUDY    32  26  78 SE5       30.26R WCI  27
LANSING*       CLOUDY    32  27  81 S3        30.27S
JOLIET*        CLOUDY    32  26  80 CALM      30.27S
WAUKEGAN       CLOUDY    31  24  75 CALM      30.25S
DUPAGE AIRPORT CLOUDY    31  26  82 S3        30.25S
KANKAKEE*      CLOUDY    32  28  84 S3        30.29R
WHEELING       CLOUDY    33  24  69 CALM      30.27F
MORRIS*        CLOUDY    32  30  92 SE3       30.26S
ROMEOVILLE*    CLOUDY    32  27  80 S5        30.26S WCI  27
NORTHERLY ISL    N/A     33  25  72 S5          N/A  WCI  29
$$

LMZ740>746-210200-
SOUTHERN LAKE MICHIGAN

STATION/POSITION SKY/WX   TEMP    WIND        PRES    VSBY  WAVE
                          AIR SEA DIR/SP/G                  HT/PER
                          (F)     (DEG/KT/KT) (MB)    (MI)  (FT/S)
WAUKEGAN HARBOR            32        CALM       N/A
HARRISON CRIB              33     190/  8/  9   N/A
BURNHAM HARBOR             33     200/  5/  8   N/A
CALUMET HARBOR             33     170/  3/  4 1023.7R
$$

ILZ025>027-034>036-040-047-049-050-058-095>099-210200-
WEST-CENTRAL ILLINOIS

CITY           SKY/WX    TMP DP  RH WIND       PRES   REMARKS
QUINCY         CLOUDY    36  33  89 SE9       30.20F FOG     WCI  29
GALESBURG*     CLOUDY    33  30  88 SE7       30.21F WCI  27
MACOMB*        CLOUDY    34  33  94 SE6       30.24S FOG     WCI  29
JACKSONVILLE*  CLOUDY    39  34  81 SE3       30.24R
PITTSFIELD*    CLOUDY    37  33  87 SE5       30.24S WCI  33
$$

ILZ028>032-037-038-041>044-048-051>054-059>061-210200-
CENTRAL ILLINOIS

CITY           SKY/WX    TMP DP  RH WIND       PRES   REMARKS
PONTIAC        CLOUDY    33  31  90 S7        30.27S WCI  27
BLOOMINGTON    CLOUDY    32  30  92 S8        30.26S WCI  25
DECATUR        CLOUDY    34  28  79 SE7       30.27R WCI  28
PEORIA         CLOUDY    35  27  72 SE6       30.25S WCI  30
LACON*         CLOUDY    32  28  83 S6        30.25S WCI  27
LINCOLN*       CLOUDY    35  31  85 SE5       30.27S WCI  31
SPRINGFIELD    CLOUDY    38  31  76 SE8       30.26R WCI  32
TAYLORVILLE    CLOUDY    36  30  80 SE7       30.26S WCI  30
$$

ILZ033-039-045-046-055>057-062-063-210200-
EAST-CENTRAL ILLINOIS

CITY           SKY/WX    TMP DP  RH WIND       PRES   REMARKS
CHAMPAIGN      CLOUDY    29  26  89 CALM      30.28R
DANVILLE*      CLOUDY    31  27  84 S3        30.26R
RANTOUL*       CLOUDY    33  30  88 SE5       30.27S WCI  29
MATTOON        PTCLDY    28  24  85 E8        30.26F WCI  20
PARIS*         CLOUDY    32  29  89 CALM      30.29S
$$

ILZ079-100>102-210200-
SOUTHWEST ILLINOIS

CITY           SKY/WX    TMP DP  RH WIND       PRES   REMARKS
BELLEVILLE     CLOUDY    39  34  83 SE6       30.26R WCI  35
CAHOKIA*       CLOUDY    41  34  76 SE6       30.26R
SPARTA*        CLOUDY    39  32  77 SE3       30.28R
$$

ILZ064>066-069>071-074>076-080>082-084>086-088>090-092>094-210200-
SOUTH-CENTRAL ILLINOIS

CITY           SKY/WX    TMP DP  RH WIND       PRES   REMARKS
CARBONDALE     CLOUDY    37  30  75 E7        30.28R WCI  32
CAIRO*         CLEAR     37  32  82 CALM      30.28R
EFFINGHAM*     MOCLDY    30  25  81 E3        30.30R
MARION         CLOUDY    34  28  80 CALM      30.29R
MT. VERNON     CLOUDY    37  27  65 E3        30.29R
CENTRALIA*     CLOUDY    37  29  73 CALM      30.28R
SALEM*         CLOUDY    39  29  69 SE3       30.28R
METROPOLIS*    CLEAR     32  30  92 CALM      30.27R
$$

ILZ067-068-072-073-078-083-087-091-210200-
SOUTHEAST ILLINOIS

CITY           SKY/WX    TMP DP  RH WIND       PRES   REMARKS
LAWRENCEVILLE  CLEAR     29  26  89 E3        30.30S
FLORA*         CLEAR     34  30  85 SE5       30.30R WCI  30
FAIRFIELD*     CLOUDY    35  29  79 E5        30.28S WCI  31
HARRISBURG*    CLOUDY    37  31  79 E5        30.30R WCI  33
ROBINSON*      CLEAR     28  26  91 CALM      30.31S
CARMI*         CLEAR     31  28  90 E6        30.30R WCI  25
$$

ABBREVIATIONS USED IN REMARKS
   TC - TEMPERATURE IN CELSIUS
  WCI - WIND CHILL INDEX
   HX - HEAT INDEX
  VSB - VISIBILITY
$$



USA.gov is the U.S. government's official web portal to all federal, state and local government web resources and services.